GLOBALSTAR M038 [-]

Last updated on Fri Dec 29 2023 00:02:56 GMT+0000 (Coordinated Universal Time)

1 25624U 99004D 23361.92805859 -.00000073 00000+0 17921-3 0 9995 2 25624 51.9944 178.7633 0002300 47.7518 99.6608 12.32490478136126

Satellite not in orbit

GLOBALSTAR M038 [-]